| time (UTC) | temp F | wind direction | speed MPH | gust MPH | rain 1hr in | rain 24hr in | rain mn in | humidity % | barometer mb |
| 20260510043921 | 77 | 354 | 0.0 | 3.0 | 0.00 | 0.00 | 0.00 | 21 | |
| 20260510043422 | 77 | 290 | 1.0 | 3.0 | 0.00 | 0.00 | 0.00 | 21 | |
| 20260510042920 | 77 | 334 | 0.0 | 1.0 | 0.00 | 0.00 | 0.00 | 21 | |
| 20260510042420 | 78 | 38 | 0.0 | 2.0 | 0.00 | 0.00 | 0.00 | 21 | |
| 20260510041920 | 78 | 44 | 1.0 | 3.0 | 0.00 | 0.00 | 0.00 | 21 | |
| 20260510041421 | 77 | 52 | 2.0 | 3.0 | 0.00 | 0.00 | 0.00 | 21 | |
| 20260510040920 | 76 | 56 | 1.0 | 3.0 | 0.00 | 0.00 | 0.00 | 21 | |
| 20260510040421 | 76 | 274 | 0.0 | 2.0 | 0.00 | 0.00 | 0.00 | 21 | |
| 20260510035920 | 77 | 270 | 0.0 | 0.0 | 0.00 | 0.00 | 0.00 | 21 | |
| 20260510035420 | 77 | 270 | 0.0 | 0.0 | 0.00 | 0.00 | 0.00 | 21 | |
| 20260510034920 | 77 | 335 | 0.0 | 0.0 | 0.00 | 0.00 | 0.00 | 21 | |
| 20260510034421 | 77 | 357 | 0.0 | 0.0 | 0.00 | 0.00 | 0.00 | 21 | |
| 20260510033920 | 77 | 6 | 0.0 | 0.0 | 0.00 | 0.00 | 0.00 | 20 | |
| 20260510033420 | 78 | 44 | 0.0 | 0.0 | 0.00 | 0.00 | 0.00 | 20 | |
| 20260510032920 | 78 | 27 | 0.0 | 0.0 | 0.00 | 0.00 | 0.00 | 20 | |
| 20260510032420 | 78 | 40 | 0.0 | 0.0 | 0.00 | 0.00 | 0.00 | 20 | |
| 20260510031920 | 79 | 37 | 0.0 | 1.0 | 0.00 | 0.00 | 0.00 | 20 | |
| 20260510031420 | 79 | 13 | 0.0 | 3.0 | 0.00 | 0.00 | 0.00 | 20 | |
| 20260510031330 | 80 | 325 | 0.0 | 3.0 | 0.00 | 0.00 | 0.00 | 20 | |
| 20260510030920 | 80 | 325 | 0.0 | 3.0 | 0.00 | 0.00 | 0.00 | 20 | |
| 20260510030420 | 80 | 270 | 0.0 | 2.0 | 0.00 | 0.00 | 0.00 | 20 | |
| 20260510025920 | 80 | 270 | 0.0 | 1.0 | 0.00 | 0.00 | 0.00 | 20 | |
| 20260510025420 | 80 | 270 | 0.0 | 0.0 | 0.00 | 0.00 | 0.00 | 20 | |
| 20260510024422 | 80 | 270 | 0.0 | 1.0 | 0.00 | 0.00 | 0.00 | 20 | |
| 20260510023920 | 81 | 270 | 0.0 | 2.0 | 0.00 | 0.00 | 0.00 | 20 | |
| 20260510023420 | 82 | 270 | 0.0 | 2.0 | 0.00 | 0.00 | 0.00 | 20 | |
| 20260510022920 | 83 | 295 | 0.0 | 3.0 | 0.00 | 0.00 | 0.00 | 20 | |
| 20260510022516 | 83 | 269 | 1.0 | 3.0 | 0.00 | 0.00 | 0.00 | 21 | |
| 20260510022420 | 83 | 269 | 1.0 | 3.0 | 0.00 | 0.00 | 0.00 | 21 | |
| 20260510022025 | 84 | 311 | 1.0 | 4.0 | 0.00 | 0.00 | 0.00 | 21 | |
| 20260510021920 | 84 | 311 | 1.0 | 4.0 | 0.00 | 0.00 | 0.00 | 21 | |
| 20260510021535 | 85 | 315 | 1.0 | 4.0 | 0.00 | 0.00 | 0.00 | 21 | |
| 20260510021420 | 85 | 315 | 1.0 | 4.0 | 0.00 | 0.00 | 0.00 | 21 | |
| 20260510021016 | 86 | 315 | 2.0 | 4.0 | 0.00 | 0.00 | 0.00 | 21 | |
| 20260510020920 | 86 | 315 | 2.0 | 4.0 | 0.00 | 0.00 | 0.00 | 21 | |
| 20260510020531 | 87 | 311 | 2.0 | 5.0 | 0.00 | 0.00 | 0.00 | 22 | |
| 20260510020420 | 87 | 311 | 2.0 | 5.0 | 0.00 | 0.00 | 0.00 | 22 | |
| 20260510020010 | 88 | 319 | 2.0 | 5.0 | 0.00 | 0.00 | 0.00 | 22 | |
| 20260510015920 | 88 | 319 | 2.0 | 5.0 | 0.00 | 0.00 | 0.00 | 22 | |
| 20260510015618 | 90 | 314 | 2.0 | 5.0 | 0.00 | 0.00 | 0.00 | 22 | |
| 20260510015538 | 90 | 314 | 2.0 | 5.0 | 0.00 | 0.00 | 0.00 | 22 | |
| 20260510015420 | 90 | 314 | 2.0 | 5.0 | 0.00 | 0.00 | 0.00 | 22 | |
| 20260510015020 | 91 | 322 | 2.0 | 5.0 | 0.00 | 0.00 | 0.00 | 23 | |
| 20260510014920 | 91 | 322 | 2.0 | 5.0 | 0.00 | 0.00 | 0.00 | 23 | |
| 20260510014549 | 92 | 319 | 2.0 | 5.0 | 0.00 | 0.00 | 0.00 | 22 | |
| 20260510014421 | 92 | 319 | 2.0 | 5.0 | 0.00 | 0.00 | 0.00 | 22 | |
| 20260510014026 | 92 | 323 | 3.0 | 8.0 | 0.00 | 0.00 | 0.00 | 23 | |
| 20260510013920 | 92 | 323 | 3.0 | 8.0 | 0.00 | 0.00 | 0.00 | 23 | |
| 20260510013455 | 93 | 303 | 4.0 | 8.0 | 0.00 | 0.00 | 0.00 | 24 | |
| 20260510013420 | 93 | 303 | 4.0 | 8.0 | 0.00 | 0.00 | 0.00 | 24 | |
| 20260510013020 | 93 | 309 | 4.0 | 8.0 | 0.00 | 0.00 | 0.00 | 24 | |
| 20260510012920 | 93 | 309 | 4.0 | 8.0 | 0.00 | 0.00 | 0.00 | 24 | |
| 20260510012457 | 94 | 307 | 3.0 | 10.0 | 0.00 | 0.00 | 0.00 | 25 | |
| 20260510012422 | 94 | 307 | 3.0 | 10.0 | 0.00 | 0.00 | 0.00 | 25 | |
| 20260510012006 | 95 | 304 | 3.0 | 10.0 | 0.00 | 0.00 | 0.00 | 24 | |
| 20260510011920 | 95 | 304 | 3.0 | 10.0 | 0.00 | 0.00 | 0.00 | 24 | |
| 20260510011420 | 95 | 317 | 3.0 | 9.0 | 0.00 | 0.00 | 0.00 | 25 | |
| 20260510011023 | 95 | 304 | 3.0 | 9.0 | 0.00 | 0.00 | 0.00 | 24 | |
| 20260510010920 | 95 | 304 | 3.0 | 9.0 | 0.00 | 0.00 | 0.00 | 24 | |
| 20260510010519 | 95 | 313 | 3.0 | 8.0 | 0.00 | 0.00 | 0.00 | 24 | |
| 20260510010420 | 95 | 313 | 3.0 | 8.0 | 0.00 | 0.00 | 0.00 | 24 | |
| 20260510005959 | 96 | 305 | 4.0 | 9.0 | 0.00 | 0.00 | 0.00 | 24 | |
| 20260510005920 | 96 | 305 | 4.0 | 9.0 | 0.00 | 0.00 | 0.00 | 24 | |
| 20260510005456 | 96 | 305 | 5.0 | 9.0 | 0.00 | 0.00 | 0.00 | 24 | |
| 20260510005420 | 96 | 305 | 5.0 | 9.0 | 0.00 | 0.00 | 0.00 | 24 | |
| 20260510005029 | 96 | 291 | 5.0 | 10.0 | 0.00 | 0.00 | 0.00 | 25 | |
| 20260510004920 | 96 | 291 | 5.0 | 10.0 | 0.00 | 0.00 | 0.00 | 25 | |
| 20260510004530 | 97 | 305 | 5.0 | 11.0 | 0.00 | 0.00 | 0.00 | 26 | |
| 20260510004420 | 97 | 305 | 5.0 | 11.0 | 0.00 | 0.00 | 0.00 | 26 | |
| 20260510004041 | 98 | 268 | 7.0 | 11.0 | 0.00 | 0.00 | 0.00 | 26 | |
| 20260510003920 | 98 | 268 | 7.0 | 11.0 | 0.00 | 0.00 | 0.00 | 26 | |
| 20260510003420 | 98 | 314 | 4.0 | 8.0 | 0.00 | 0.00 | 0.00 | 25 | |
| 20260510003008 | 98 | 303 | 3.0 | 13.0 | 0.00 | 0.00 | 0.00 | 26 | |
| 20260510002920 | 98 | 303 | 3.0 | 13.0 | 0.00 | 0.00 | 0.00 | 26 | |
| 20260510002508 | 98 | 281 | 5.0 | 13.0 | 0.00 | 0.00 | 0.00 | 25 | |
| 20260510002420 | 98 | 281 | 5.0 | 13.0 | 0.00 | 0.00 | 0.00 | 25 | |
| 20260510002017 | 99 | 278 | 6.0 | 12.0 | 0.00 | 0.00 | 0.00 | 26 | |
| 20260510001920 | 99 | 278 | 6.0 | 12.0 | 0.00 | 0.00 | 0.00 | 26 | |
| 20260510001527 | 99 | 284 | 4.0 | 13.0 | 0.00 | 0.00 | 0.00 | 26 | |
| 20260510001420 | 99 | 284 | 4.0 | 13.0 | 0.00 | 0.00 | 0.00 | 26 | |
| 20260510000920 | 99 | 269 | 7.0 | 15.0 | 0.00 | 0.00 | 0.00 | 27 | |
| 20260510000503 | 99 | 274 | 8.0 | 15.0 | 0.00 | 0.00 | 0.00 | 27 | |
| 20260510000421 | 99 | 274 | 8.0 | 15.0 | 0.00 | 0.00 | 0.00 | 27 | |
| 20260509235952 | 100 | 256 | 6.0 | 12.0 | 0.00 | 0.00 | 0.00 | 27 | |
| 20260509235920 | 100 | 256 | 6.0 | 12.0 | 0.00 | 0.00 | 0.00 | 27 | |
| 20260509235420 | 100 | 267 | 6.0 | 10.0 | 0.00 | 0.00 | 0.00 | 26 | |
| 20260509235015 | 100 | 265 | 5.0 | 11.0 | 0.00 | 0.00 | 0.00 | 25 | |
| 20260509234920 | 100 | 265 | 5.0 | 11.0 | 0.00 | 0.00 | 0.00 | 25 | |
| 20260509234506 | 100 | 284 | 6.0 | 11.0 | 0.00 | 0.00 | 0.00 | 24 | |
| 20260509234420 | 100 | 284 | 6.0 | 11.0 | 0.00 | 0.00 | 0.00 | 24 | |
| 20260509234041 | 100 | 333 | 4.0 | 9.0 | 0.00 | 0.00 | 0.00 | 24 | |
| 20260509233920 | 100 | 333 | 4.0 | 9.0 | 0.00 | 0.00 | 0.00 | 24 | |
| 20260509233420 | 101 | 306 | 5.0 | 11.0 | 0.00 | 0.00 | 0.00 | 25 | |
| 20260509233006 | 101 | 270 | 7.0 | 14.0 | 0.00 | 0.00 | 0.00 | 26 | |
| 20260509232921 | 101 | 270 | 7.0 | 14.0 | 0.00 | 0.00 | 0.00 | 26 | |
| 20260509232509 | 101 | 315 | 4.0 | 14.0 | 0.00 | 0.00 | 0.00 | 25 | |
| 20260509232420 | 101 | 315 | 4.0 | 14.0 | 0.00 | 0.00 | 0.00 | 25 | |
| 20260509232008 | 101 | 298 | 5.0 | 12.0 | 0.00 | 0.00 | 0.00 | 25 | |
| 20260509231920 | 101 | 298 | 5.0 | 12.0 | 0.00 | 0.00 | 0.00 | 25 | |
| 20260509231505 | 101 | 279 | 6.0 | 12.0 | 0.00 | 0.00 | 0.00 | 26 | |
| 20260509231420 | 101 | 279 | 6.0 | 12.0 | 0.00 | 0.00 | 0.00 | 26 | |
| 20260509231015 | 101 | 280 | 5.0 | 10.0 | 0.00 | 0.00 | 0.00 | 26 | |
| 20260509230920 | 101 | 280 | 5.0 | 10.0 | 0.00 | 0.00 | 0.00 | 26 | |
| 20260509230420 | 101 | 302 | 4.0 | 9.0 | 0.00 | 0.00 | 0.00 | 25 | |
| 20260509230009 | 100 | 319 | 4.0 | 14.0 | 0.00 | 0.00 | 0.00 | 25 | |
| 20260509225920 | 100 | 319 | 4.0 | 14.0 | 0.00 | 0.00 | 0.00 | 25 | |
| 20260509225420 | 100 | 272 | 7.0 | 14.0 | 0.00 | 0.00 | 0.00 | 28 | |
| 20260509225015 | 100 | 279 | 5.0 | 10.0 | 0.00 | 0.00 | 0.00 | 27 | |
| 20260509224920 | 100 | 279 | 5.0 | 10.0 | 0.00 | 0.00 | 0.00 | 27 | |
| 20260509224420 | 100 | 283 | 6.0 | 13.0 | 0.00 | 0.00 | 0.00 | 27 | |
| 20260509224018 | 100 | 255 | 8.0 | 15.0 | 0.00 | 0.00 | 0.00 | 29 | |
| 20260509223920 | 100 | 255 | 8.0 | 15.0 | 0.00 | 0.00 | 0.00 | 29 | |
| 20260509223420 | 101 | 271 | 6.0 | 15.0 | 0.00 | 0.00 | 0.00 | 27 | |
| 20260509223052 | 101 | 274 | 8.0 | 15.0 | 0.00 | 0.00 | 0.00 | 28 | |
| 20260509223014 | 101 | 274 | 8.0 | 15.0 | 0.00 | 0.00 | 0.00 | 28 | |
| 20260509222920 | 101 | 274 | 8.0 | 15.0 | 0.00 | 0.00 | 0.00 | 28 | |
| 20260509222529 | 101 | 257 | 5.0 | 13.0 | 0.00 | 0.00 | 0.00 | 28 | |
| 20260509222420 | 101 | 257 | 5.0 | 13.0 | 0.00 | 0.00 | 0.00 | 28 | |
| 20260509222044 | 101 | 236 | 8.0 | 11.0 | 0.00 | 0.00 | 0.00 | 29 | |
| 20260509221920 | 101 | 236 | 8.0 | 11.0 | 0.00 | 0.00 | 0.00 | 29 | |
| 20260509221535 | 101 | 258 | 5.0 | 12.0 | 0.00 | 0.00 | 0.00 | 29 | |
| 20260509221420 | 101 | 258 | 5.0 | 12.0 | 0.00 | 0.00 | 0.00 | 29 | |
| 20260509221009 | 101 | 253 | 7.0 | 13.0 | 0.00 | 0.00 | 0.00 | 29 | |
| 20260509220920 | 101 | 253 | 7.0 | 13.0 | 0.00 | 0.00 | 0.00 | 29 | |
| 20260509220420 | 101 | 247 | 7.0 | 13.0 | 0.00 | 0.00 | 0.00 | 30 | |
| 20260509220004 | 101 | 232 | 6.0 | 14.0 | 0.00 | 0.00 | 0.00 | 30 | |
| 20260509215920 | 101 | 232 | 6.0 | 14.0 | 0.00 | 0.00 | 0.00 | 30 | |
| 20260509215527 | 101 | 253 | 9.0 | 14.0 | 0.00 | 0.00 | 0.00 | 30 | |
| 20260509215420 | 101 | 253 | 9.0 | 14.0 | 0.00 | 0.00 | 0.00 | 30 | |
| 20260509215013 | 101 | 274 | 5.0 | 12.0 | 0.00 | 0.00 | 0.00 | 28 | |
| 20260509214920 | 101 | 274 | 5.0 | 12.0 | 0.00 | 0.00 | 0.00 | 28 | |
| 20260509214527 | 101 | 286 | 5.0 | 11.0 | 0.00 | 0.00 | 0.00 | 28 | |
| 20260509214421 | 101 | 286 | 5.0 | 11.0 | 0.00 | 0.00 | 0.00 | 28 | |
| 20260509214117 | 101 | 268 | 4.0 | 8.0 | 0.00 | 0.00 | 0.00 | 28 | |
| 20260509214041 | 101 | 268 | 4.0 | 8.0 | 0.00 | 0.00 | 0.00 | 28 | |
| 20260509213920 | 101 | 268 | 4.0 | 8.0 | 0.00 | 0.00 | 0.00 | 28 | |
| 20260509213420 | 101 | 303 | 4.0 | 11.0 | 0.00 | 0.00 | 0.00 | 27 | |
| 20260509213010 | 101 | 274 | 6.0 | 12.0 | 0.00 | 0.00 | 0.00 | 28 | |
| 20260509212920 | 101 | 274 | 6.0 | 12.0 | 0.00 | 0.00 | 0.00 | 28 | |
| 20260509212017 | 101 | 290 | 4.0 | 8.0 | 0.00 | 0.00 | 0.00 | 27 | |
| 20260509211920 | 101 | 290 | 4.0 | 8.0 | 0.00 | 0.00 | 0.00 | 27 | |
| 20260509211515 | 101 | 323 | 4.0 | 11.0 | 0.00 | 0.00 | 0.00 | 26 | |
| 20260509211421 | 101 | 323 | 4.0 | 11.0 | 0.00 | 0.00 | 0.00 | 26 | |
| 20260509211010 | 101 | 262 | 5.0 | 11.0 | 0.00 | 0.00 | 0.00 | 29 | |
| 20260509210920 | 101 | 262 | 5.0 | 11.0 | 0.00 | 0.00 | 0.00 | 29 | |
| 20260509210512 | 101 | 265 | 5.0 | 8.0 | 0.00 | 0.00 | 0.00 | 29 | |
| 20260509210420 | 101 | 265 | 5.0 | 8.0 | 0.00 | 0.00 | 0.00 | 29 | |
| 20260509210016 | 100 | 278 | 4.0 | 14.0 | 0.00 | 0.00 | 0.00 | 28 | |
| 20260509205920 | 100 | 278 | 4.0 | 14.0 | 0.00 | 0.00 | 0.00 | 28 | |
| 20260509205420 | 100 | 292 | 5.0 | 14.0 | 0.00 | 0.00 | 0.00 | 28 | |
| 20260509204955 | 100 | 304 | 4.0 | 9.0 | 0.00 | 0.00 | 0.00 | 28 | |
| 20260509204922 | 100 | 304 | 4.0 | 9.0 | 0.00 | 0.00 | 0.00 | 28 | |
| 20260509204518 | 100 | 275 | 5.0 | 10.0 | 0.00 | 0.00 | 0.00 | 29 | |
| 20260509204422 | 100 | 275 | 5.0 | 10.0 | 0.00 | 0.00 | 0.00 | 29 | |
| 20260509203958 | 100 | 233 | 6.0 | 10.0 | 0.00 | 0.00 | 0.00 | 31 | |
| 20260509203921 | 100 | 233 | 6.0 | 10.0 | 0.00 | 0.00 | 0.00 | 31 | |
| 20260509203527 | 100 | 255 | 5.0 | 15.0 | 0.00 | 0.00 | 0.00 | 30 | |
| 20260509203455 | 100 | 255 | 5.0 | 15.0 | 0.00 | 0.00 | 0.00 | 30 | |
| 20260509203420 | 100 | 255 | 5.0 | 15.0 | 0.00 | 0.00 | 0.00 | 30 | |
| 20260509203012 | 100 | 260 | 5.0 | 15.0 | 0.00 | 0.00 | 0.00 | 30 | |
| 20260509202922 | 100 | 260 | 5.0 | 15.0 | 0.00 | 0.00 | 0.00 | 30 | |
| 20260509202457 | 100 | 259 | 6.0 | 11.0 | 0.00 | 0.00 | 0.00 | 30 | |
| 20260509202420 | 100 | 259 | 6.0 | 11.0 | 0.00 | 0.00 | 0.00 | 30 | |
| 20260509202021 | 100 | 249 | 5.0 | 10.0 | 0.00 | 0.00 | 0.00 | 29 | |
| 20260509201920 | 100 | 249 | 5.0 | 10.0 | 0.00 | 0.00 | 0.00 | 29 | |
| 20260509201457 | 99 | 316 | 3.0 | 10.0 | 0.00 | 0.00 | 0.00 | 26 | |
| 20260509201420 | 99 | 316 | 3.0 | 10.0 | 0.00 | 0.00 | 0.00 | 26 | |
| 20260509200951 | 99 | 355 | 4.0 | 9.0 | 0.00 | 0.00 | 0.00 | 26 | |
| 20260509200920 | 99 | 355 | 4.0 | 9.0 | 0.00 | 0.00 | 0.00 | 26 | |
| 20260509200458 | 98 | 271 | 3.0 | 12.0 | 0.00 | 0.00 | 0.00 | 27 | |
| 20260509200420 | 98 | 271 | 3.0 | 12.0 | 0.00 | 0.00 | 0.00 | 27 | |
| 20260509195955 | 99 | 254 | 6.0 | 12.0 | 0.00 | 0.00 | 0.00 | 30 | |
| 20260509195920 | 99 | 254 | 6.0 | 12.0 | 0.00 | 0.00 | 0.00 | 30 | |
| 20260509195459 | 98 | 264 | 3.0 | 9.0 | 0.00 | 0.00 | 0.00 | 29 | |
| 20260509195420 | 98 | 264 | 3.0 | 9.0 | 0.00 | 0.00 | 0.00 | 29 | |
| 20260509195001 | 99 | 243 | 5.0 | 10.0 | 0.00 | 0.00 | 0.00 | 29 | |
| 20260509194920 | 99 | 243 | 5.0 | 10.0 | 0.00 | 0.00 | 0.00 | 29 | |
| 20260509194508 | 99 | 256 | 4.0 | 10.0 | 0.00 | 0.00 | 0.00 | 28 | |
| 20260509194420 | 99 | 256 | 4.0 | 10.0 | 0.00 | 0.00 | 0.00 | 28 | |
| 20260509194002 | 98 | 265 | 4.0 | 8.0 | 0.00 | 0.00 | 0.00 | 29 | |
| 20260509193920 | 98 | 265 | 4.0 | 8.0 | 0.00 | 0.00 | 0.00 | 29 | |
| 20260509193420 | 97 | 315 | 3.0 | 6.0 | 0.00 | 0.00 | 0.00 | 28 | |
| 20260509193016 | 97 | 330 | 3.0 | 7.0 | 0.00 | 0.00 | 0.00 | 28 | |
| 20260509192920 | 97 | 330 | 3.0 | 7.0 | 0.00 | 0.00 | 0.00 | 28 | |
| 20260509192513 | 97 | 301 | 4.0 | 8.0 | 0.00 | 0.00 | 0.00 | 28 | |
| 20260509192420 | 97 | 301 | 4.0 | 8.0 | 0.00 | 0.00 | 0.00 | 28 | |
| 20260509191954 | 96 | 277 | 3.0 | 11.0 | 0.00 | 0.00 | 0.00 | 29 | |
| 20260509191920 | 96 | 277 | 3.0 | 11.0 | 0.00 | 0.00 | 0.00 | 29 | |
| 20260509191451 | 96 | 276 | 5.0 | 11.0 | 0.00 | 0.00 | 0.00 | 30 | |
| 20260509191420 | 96 | 276 | 5.0 | 11.0 | 0.00 | 0.00 | 0.00 | 30 | |
| 20260509190951 | 96 | 303 | 3.0 | 8.0 | 0.00 | 0.00 | 0.00 | 29 | |
| 20260509190920 | 96 | 303 | 3.0 | 8.0 | 0.00 | 0.00 | 0.00 | 29 | |
| 20260509190420 | 97 | 262 | 5.0 | 9.0 | 0.00 | 0.00 | 0.00 | 30 | |
| 20260509185957 | 97 | 277 | 4.0 | 9.0 | 0.00 | 0.00 | 0.00 | 30 | |
| 20260509185920 | 97 | 277 | 4.0 | 9.0 | 0.00 | 0.00 | 0.00 | 30 | |
| 20260509185507 | 96 | 291 | 3.0 | 8.0 | 0.00 | 0.00 | 0.00 | 29 | |
| 20260509185421 | 96 | 291 | 3.0 | 8.0 | 0.00 | 0.00 | 0.00 | 29 | |
| 20260509185002 | 95 | 275 | 3.0 | 7.0 | 0.00 | 0.00 | 0.00 | 29 | |
| 20260509184920 | 95 | 275 | 3.0 | 7.0 | 0.00 | 0.00 | 0.00 | 29 | |
| 20260509184511 | 95 | 272 | 3.0 | 9.0 | 0.00 | 0.00 | 0.00 | 29 | |
| 20260509184420 | 95 | 272 | 3.0 | 9.0 | 0.00 | 0.00 | 0.00 | 29 | |
| 20260509184010 | 94 | 273 | 5.0 | 9.0 | 0.00 | 0.00 | 0.00 | 28 | |
| 20260509183920 | 94 | 273 | 5.0 | 9.0 | 0.00 | 0.00 | 0.00 | 28 | |
| 20260509183420 | 94 | 316 | 3.0 | 8.0 | 0.00 | 0.00 | 0.00 | 26 | |
| 20260509182959 | 95 | 300 | 3.0 | 8.0 | 0.00 | 0.00 | 0.00 | 28 | |
| 20260509182920 | 95 | 300 | 3.0 | 8.0 | 0.00 | 0.00 | 0.00 | 28 | |
| 20260509182505 | 94 | 251 | 4.0 | 8.0 | 0.00 | 0.00 | 0.00 | 29 | |
| 20260509182421 | 94 | 251 | 4.0 | 8.0 | 0.00 | 0.00 | 0.00 | 29 | |
| 20260509181952 | 94 | 230 | 2.0 | 8.0 | 0.00 | 0.00 | 0.00 | 28 | |
| 20260509181920 | 94 | 230 | 2.0 | 8.0 | 0.00 | 0.00 | 0.00 | 28 | |
| 20260509181512 | 94 | 249 | 5.0 | 9.0 | 0.00 | 0.00 | 0.00 | 30 | |
| 20260509181420 | 94 | 249 | 5.0 | 9.0 | 0.00 | 0.00 | 0.00 | 30 | |
| 20260509181001 | 94 | 269 | 4.0 | 9.0 | 0.00 | 0.00 | 0.00 | 30 | |
| 20260509180922 | 94 | 269 | 4.0 | 9.0 | 0.00 | 0.00 | 0.00 | 30 | |
| 20260509180510 | 93 | 263 | 3.0 | 7.0 | 0.00 | 0.00 | 0.00 | 29 | |
| 20260509180420 | 93 | 263 | 3.0 | 7.0 | 0.00 | 0.00 | 0.00 | 29 | |
| 20260509180009 | 93 | 246 | 3.0 | 7.0 | 0.00 | 0.00 | 0.00 | 30 | |
| 20260509175543 | 93 | 219 | 4.0 | 6.0 | 0.00 | 0.00 | 0.00 | 30 | |
| 20260509175420 | 93 | 219 | 4.0 | 6.0 | 0.00 | 0.00 | 0.00 | 30 | |
| 20260509175018 | 93 | 266 | 3.0 | 6.0 | 0.00 | 0.00 | 0.00 | 29 | |
| 20260509174920 | 93 | 266 | 3.0 | 6.0 | 0.00 | 0.00 | 0.00 | 29 | |
| 20260509174513 | 93 | 303 | 3.0 | 8.0 | 0.00 | 0.00 | 0.00 | 29 | |
| 20260509174420 | 93 | 303 | 3.0 | 8.0 | 0.00 | 0.00 | 0.00 | 29 | |
| 20260509173957 | 93 | 267 | 5.0 | 8.0 | 0.00 | 0.00 | 0.00 | 30 | |
| 20260509173920 | 93 | 267 | 5.0 | 8.0 | 0.00 | 0.00 | 0.00 | 30 | |
| 20260509173456 | 93 | 267 | 4.0 | 8.0 | 0.00 | 0.00 | 0.00 | 29 | |
| 20260509173420 | 93 | 267 | 4.0 | 8.0 | 0.00 | 0.00 | 0.00 | 29 | |
| 20260509173009 | 92 | 272 | 2.0 | 9.0 | 0.00 | 0.00 | 0.00 | 28 | |
| 20260509172920 | 92 | 272 | 2.0 | 9.0 | 0.00 | 0.00 | 0.00 | 28 | |
| 20260509172455 | 92 | 270 | 5.0 | 9.0 | 0.00 | 0.00 | 0.00 | 28 | |
| 20260509172420 | 92 | 270 | 5.0 | 9.0 | 0.00 | 0.00 | 0.00 | 28 | |
| 20260509171958 | 92 | 233 | 4.0 | 9.0 | 0.00 | 0.00 | 0.00 | 28 | |
| 20260509171920 | 92 | 233 | 4.0 | 9.0 | 0.00 | 0.00 | 0.00 | 28 | |
| 20260509171510 | 92 | 262 | 4.0 | 8.0 | 0.00 | 0.00 | 0.00 | 30 | |
| 20260509171420 | 92 | 262 | 4.0 | 8.0 | 0.00 | 0.00 | 0.00 | 30 | |
| 20260509170954 | 92 | 36 | 1.0 | 7.0 | 0.00 | 0.00 | 0.00 | 28 | |
| 20260509170920 | 92 | 36 | 1.0 | 7.0 | 0.00 | 0.00 | 0.00 | 28 | |
| 20260509170420 | 92 | 261 | 3.0 | 8.0 | 0.00 | 0.00 | 0.00 | 29 | |
| 20260509165958 | 92 | 247 | 5.0 | 8.0 | 0.00 | 0.00 | 0.00 | 30 | |
| 20260509165920 | 92 | 247 | 5.0 | 8.0 | 0.00 | 0.00 | 0.00 | 30 | |
| 20260509165420 | 91 | 259 | 3.0 | 8.0 | 0.00 | 0.00 | 0.00 | 29 | |
| 20260509164958 | 91 | 272 | 4.0 | 8.0 | 0.00 | 0.00 | 0.00 | 29 | |
| 20260509164920 | 91 | 272 | 4.0 | 8.0 | 0.00 | 0.00 | 0.00 | 29 | |
| 20260509164420 | 92 | 258 | 4.0 | 8.0 | 0.00 | 0.00 | 0.00 | 29 | |
| 20260509164008 | 92 | 275 | 3.0 | 7.0 | 0.00 | 0.00 | 0.00 | 29 | |
| 20260509163920 | 92 | 275 | 3.0 | 7.0 | 0.00 | 0.00 | 0.00 | 29 | |
| 20260509163421 | 92 | 266 | 4.0 | 7.0 | 0.00 | 0.00 | 0.00 | 30 | |
| 20260509163008 | 91 | 278 | 2.0 | 6.0 | 0.00 | 0.00 | 0.00 | 28 | |
| 20260509162920 | 91 | 278 | 2.0 | 6.0 | 0.00 | 0.00 | 0.00 | 28 | |
| 20260509162508 | 91 | 236 | 3.0 | 6.0 | 0.00 | 0.00 | 0.00 | 30 | |
| 20260509162420 | 91 | 236 | 3.0 | 6.0 | 0.00 | 0.00 | 0.00 | 30 | |
| 20260509161920 | 91 | 265 | 3.0 | 6.0 | 0.00 | 0.00 | 0.00 | 29 | |
| 20260509161511 | 90 | 217 | 2.0 | 5.0 | 0.00 | 0.00 | 0.00 | 29 | |
| 20260509161420 | 90 | 217 | 2.0 | 5.0 | 0.00 | 0.00 | 0.00 | 29 | |
| 20260509160920 | 90 | 243 | 3.0 | 6.0 | 0.00 | 0.00 | 0.00 | 30 | |
| 20260509160507 | 90 | 234 | 2.0 | 6.0 | 0.00 | 0.00 | 0.00 | 30 | |
| 20260509160420 | 90 | 234 | 2.0 | 6.0 | 0.00 | 0.00 | 0.00 | 30 | |
| 20260509155920 | 90 | 268 | 3.0 | 6.0 | 0.00 | 0.00 | 0.00 | 30 | |
| 20260509155420 | 88 | 308 | 1.0 | 6.0 | 0.00 | 0.00 | 0.00 | 29 | |
| 20260509154953 | 88 | 305 | 3.0 | 6.0 | 0.00 | 0.00 | 0.00 | 30 | |
| 20260509154920 | 88 | 305 | 3.0 | 6.0 | 0.00 | 0.00 | 0.00 | 30 | |
| 20260509154500 | 88 | 298 | 2.0 | 5.0 | 0.00 | 0.00 | 0.00 | 30 | |
| 20260509154420 | 88 | 298 | 2.0 | 5.0 | 0.00 | 0.00 | 0.00 | 30 | |
| 20260509153958 | 88 | 262 | 3.0 | 5.0 | 0.00 | 0.00 | 0.00 | 30 | |
| 20260509153920 | 88 | 262 | 3.0 | 5.0 | 0.00 | 0.00 | 0.00 | 30 | |
| 20260509153420 | 89 | 266 | 3.0 | 5.0 | 0.00 | 0.00 | 0.00 | 31 | |
| 20260509152941 | 88 | 266 | 2.0 | 4.0 | 0.00 | 0.00 | 0.00 | 30 | |
| 20260509152905 | 88 | 266 | 2.0 | 4.0 | 0.00 | 0.00 | 0.00 | 30 | |
| 20260509152503 | 87 | 345 | 1.0 | 4.0 | 0.00 | 0.00 | 0.00 | 28 | |
| 20260509152406 | 87 | 345 | 1.0 | 4.0 | 0.00 | 0.00 | 0.00 | 28 | |
| 20260509151948 | 86 | 356 | 1.0 | 4.0 | 0.00 | 0.00 | 0.00 | 28 | |
| 20260509151905 | 86 | 356 | 1.0 | 4.0 | 0.00 | 0.00 | 0.00 | 28 | |
| 20260509151406 | 86 | 310 | 1.0 | 3.0 | 0.00 | 0.00 | 0.00 | 29 | |
| 20260509150905 | 86 | 3 | 2.0 | 4.0 | 0.00 | 0.00 | 0.00 | 28 | |
| 20260509150448 | 85 | 13 | 2.0 | 4.0 | 0.00 | 0.00 | 0.00 | 29 | |
| 20260509150406 | 85 | 13 | 2.0 | 4.0 | 0.00 | 0.00 | 0.00 | 29 | |
| 20260509145944 | 85 | 9 | 2.0 | 3.0 | 0.00 | 0.00 | 0.00 | 28 | |
| 20260509145905 | 85 | 9 | 2.0 | 3.0 | 0.00 | 0.00 | 0.00 | 28 | |
| 20260509145408 | 84 | 7 | 2.0 | 3.0 | 0.00 | 0.00 | 0.00 | 28 | |
| 20260509144907 | 83 | 351 | 1.0 | 3.0 | 0.00 | 0.00 | 0.00 | 28 | |
| 20260509144407 | 82 | 14 | 0.0 | 2.0 | 0.00 | 0.00 | 0.00 | 29 | |
| 20260509143906 | 81 | 260 | 1.0 | 2.0 | 0.00 | 0.00 | 0.00 | 30 | |
| 20260509143406 | 81 | 255 | 1.0 | 3.0 | 0.00 | 0.00 | 0.00 | 31 | |
| 20260509142906 | 81 | 268 | 1.0 | 3.0 | 0.00 | 0.00 | 0.00 | 31 | |
| 20260509142406 | 80 | 289 | 1.0 | 3.0 | 0.00 | 0.00 | 0.00 | 30 | |
| 20260509141905 | 79 | 276 | 1.0 | 3.0 | 0.00 | 0.00 | 0.00 | 31 | |
| 20260509141410 | 78 | 252 | 2.0 | 3.0 | 0.00 | 0.00 | 0.00 | 32 | |
| 20260509140905 | 78 | 253 | 2.0 | 3.0 | 0.00 | 0.00 | 0.00 | 32 | |
| 20260509140406 | 77 | 260 | 2.0 | 3.0 | 0.00 | 0.00 | 0.00 | 32 | |
| 20260509135912 | 76 | 298 | 1.0 | 2.0 | 0.00 | 0.00 | 0.00 | 31 | |
| 20260509135405 | 75 | 311 | 1.0 | 2.0 | 0.00 | 0.00 | 0.00 | 30 | |
| 20260509134906 | 74 | 319 | 0.0 | 1.0 | 0.00 | 0.00 | 0.00 | 29 | |
| 20260509134405 | 74 | 345 | 0.0 | 0.0 | 0.00 | 0.00 | 0.00 | 29 | |
| 20260509133906 | 73 | 349 | 0.0 | 0.0 | 0.00 | 0.00 | 0.00 | 29 | |
| 20260509133405 | 73 | 346 | 0.0 | 0.0 | 0.00 | 0.00 | 0.00 | 29 | |
| 20260509132906 | 73 | 279 | 0.0 | 0.0 | 0.00 | 0.00 | 0.00 | 32 | |
| 20260509132406 | 72 | 8 | 0.0 | 0.0 | 0.00 | 0.00 | 0.00 | 29 | |
| 20260509131905 | 71 | 30 | 0.0 | 0.0 | 0.00 | 0.00 | 0.00 | 28 | |
| 20260509131405 | 70 | 61 | 0.0 | 0.0 | 0.00 | 0.00 | 0.00 | 29 | |
| 20260509130905 | 70 | 82 | 0.0 | 0.0 | 0.00 | 0.00 | 0.00 | 29 | |
| 20260509130405 | 69 | 88 | 0.0 | 0.0 | 0.00 | 0.00 | 0.00 | 29 | |
| 20260509125906 | 68 | 109 | 0.0 | 0.0 | 0.00 | 0.00 | 0.00 | 32 | |
| 20260509125406 | 67 | 103 | 0.0 | 0.0 | 0.00 | 0.00 | 0.00 | 31 | |
| 20260509124905 | 67 | 100 | 0.0 | 3.0 | 0.00 | 0.00 | 0.00 | 30 | |
| 20260509124405 | 66 | 103 | 0.0 | 3.0 | 0.00 | 0.00 | 0.00 | 31 | |
| 20260509123906 | 66 | 93 | 0.0 | 0.0 | 0.00 | 0.00 | 0.00 | 30 | |
| 20260509123405 | 67 | 88 | 0.0 | 0.0 | 0.00 | 0.00 | 0.00 | 29 | |
| 20260509122914 | 66 | 99 | 0.0 | 0.0 | 0.00 | 0.00 | 0.00 | 31 | |
| 20260509122406 | 66 | 91 | 0.0 | 0.0 | 0.00 | 0.00 | 0.00 | 29 | |
| 20260509121906 | 66 | 92 | 0.0 | 0.0 | 0.00 | 0.00 | 0.00 | 28 | |
| 20260509121408 | 66 | 95 | 0.0 | 0.0 | 0.00 | 0.00 | 0.00 | 30 | |
| 20260509120906 | 66 | 97 | 0.0 | 3.0 | 0.00 | 0.00 | 0.00 | 30 | |
| 20260509120407 | 66 | 86 | 1.0 | 3.0 | 0.00 | 0.00 | 0.00 | 29 | |
| 20260509115905 | 66 | 88 | 2.0 | 3.0 | 0.00 | 0.00 | 0.00 | 29 | |
| 20260509115408 | 65 | 90 | 2.0 | 3.0 | 0.00 | 0.00 | 0.00 | 29 | |
| 20260509114905 | 65 | 89 | 1.0 | 3.0 | 0.00 | 0.00 | 0.00 | 29 | |
| 20260509114410 | 65 | 76 | 0.0 | 3.0 | 0.00 | 0.00 | 0.00 | 30 | |
| 20260509113906 | 65 | 87 | 0.0 | 2.0 | 0.00 | 0.00 | 0.00 | 30 | |
| 20260509113405 | 65 | 78 | 0.0 | 2.0 | 0.00 | 0.00 | 0.00 | 29 | |
| 20260509112905 | 65 | 64 | 0.0 | 3.0 | 0.00 | 0.00 | 0.00 | 29 | |
| 20260509112407 | 65 | 76 | 0.0 | 3.0 | 0.00 | 0.00 | 0.00 | 29 | |
| 20260509111905 | 65 | 89 | 0.0 | 0.0 | 0.00 | 0.00 | 0.00 | 29 | |
| 20260509111407 | 65 | 95 | 0.0 | 0.0 | 0.00 | 0.00 | 0.00 | 29 | |
| 20260509110906 | 65 | 90 | 0.0 | 2.0 | 0.00 | 0.00 | 0.00 | 28 | |
| 20260509110406 | 65 | 96 | 0.0 | 2.0 | 0.00 | 0.00 | 0.00 | 30 | |
| 20260509105907 | 65 | 91 | 0.0 | 0.0 | 0.00 | 0.00 | 0.00 | 28 | |
| 20260509105405 | 65 | 95 | 0.0 | 2.0 | 0.00 | 0.00 | 0.00 | 29 | |
| 20260509104907 | 64 | 108 | 0.0 | 2.0 | 0.00 | 0.00 | 0.00 | 30 | |
| 20260509104406 | 64 | 84 | 0.0 | 0.0 | 0.00 | 0.00 | 0.00 | 27 | |
| 20260509103906 | 64 | 52 | 0.0 | 0.0 | 0.00 | 0.00 | 0.00 | 27 | |
| 20260509103406 | 65 | 67 | 0.0 | 0.0 | 0.00 | 0.00 | 0.00 | 27 | |
| 20260509102906 | 66 | 64 | 0.0 | 0.0 | 0.00 | 0.00 | 0.00 | 27 | |
| 20260509102407 | 68 | 46 | 0.0 | 0.0 | 0.00 | 0.00 | 0.00 | 26 | |
| 20260509101906 | 69 | 220 | 0.0 | 3.0 | 0.00 | 0.00 | 0.00 | 27 | |
| 20260509101406 | 70 | 176 | 0.0 | 4.0 | 0.00 | 0.00 | 0.00 | 30 | |
| 20260509100909 | 71 | 195 | 2.0 | 5.0 | 0.00 | 0.00 | 0.00 | 30 | |
| 20260509100406 | 71 | 191 | 3.0 | 5.0 | 0.00 | 0.00 | 0.00 | 29 | |
| 20260509095906 | 70 | 190 | 3.0 | 5.0 | 0.00 | 0.00 | 0.00 | 30 | |
| 20260509095408 | 70 | 192 | 0.0 | 5.0 | 0.00 | 0.00 | 0.00 | 30 | |
| 20260509094906 | 71 | 185 | 3.0 | 6.0 | 0.00 | 0.00 | 0.00 | 29 | |
| 20260509094407 | 70 | 192 | 4.0 | 6.0 | 0.00 | 0.00 | 0.00 | 30 | |
| 20260509093906 | 70 | 190 | 4.0 | 5.0 | 0.00 | 0.00 | 0.00 | 30 | |
| 20260509093406 | 70 | 188 | 3.0 | 4.0 | 0.00 | 0.00 | 0.00 | 29 | |
| 20260509092906 | 70 | 192 | 3.0 | 4.0 | 0.00 | 0.00 | 0.00 | 29 | |
| 20260509091906 | 70 | 184 | 3.0 | 4.0 | 0.00 | 0.00 | 0.00 | 30 | |
| 20260509091406 | 70 | 191 | 3.0 | 4.0 | 0.00 | 0.00 | 0.00 | 29 | |
| 20260509090906 | 70 | 184 | 3.0 | 4.0 | 0.00 | 0.00 | 0.00 | 29 | |
| 20260509090406 | 70 | 183 | 3.0 | 4.0 | 0.00 | 0.00 | 0.00 | 29 | |
| 20260509085906 | 69 | 183 | 3.0 | 4.0 | 0.00 | 0.00 | 0.00 | 30 | |
| 20260509085406 | 69 | 178 | 2.0 | 4.0 | 0.00 | 0.00 | 0.00 | 29 | |
| 20260509084917 | 69 | 179 | 2.0 | 4.0 | 0.00 | 0.00 | 0.00 | 29 | |
| 20260509084407 | 69 | 166 | 1.0 | 3.0 | 0.00 | 0.00 | 0.00 | 29 | |
| 20260509083906 | 69 | 146 | 1.0 | 3.0 | 0.00 | 0.00 | 0.00 | 28 | |
| 20260509083409 | 69 | 168 | 1.0 | 3.0 | 0.00 | 0.00 | 0.00 | 29 | |
| 20260509082906 | 69 | 175 | 2.0 | 3.0 | 0.00 | 0.00 | 0.00 | 29 | |
| 20260509082412 | 69 | 165 | 0.0 | 3.0 | 0.00 | 0.00 | 0.00 | 29 | |
| 20260509081906 | 69 | 157 | 1.0 | 4.0 | 0.00 | 0.00 | 0.00 | 28 | |
| 20260509081406 | 69 | 169 | 2.0 | 4.0 | 0.00 | 0.00 | 0.00 | 28 | |
| 20260509080906 | 69 | 125 | 2.0 | 4.0 | 0.00 | 0.00 | 0.00 | 28 | |
| 20260509080407 | 70 | 127 | 2.0 | 4.0 | 0.00 | 0.00 | 0.00 | 26 | |
| 20260509075906 | 70 | 124 | 0.0 | 2.0 | 0.00 | 0.00 | 0.00 | 26 | |
| 20260509074906 | 71 | 220 | 2.0 | 7.0 | 0.00 | 0.00 | 0.00 | 26 | |
| 20260509074406 | 71 | 214 | 5.0 | 7.0 | 0.00 | 0.00 | 0.00 | 26 | |
| 20260509073406 | 72 | 220 | 5.0 | 8.0 | 0.00 | 0.00 | 0.00 | 26 | |
| 20260509072906 | 72 | 220 | 5.0 | 8.0 | 0.00 | 0.00 | 0.00 | 25 | |
| 20260509072406 | 72 | 213 | 5.0 | 8.0 | 0.00 | 0.00 | 0.00 | 26 | |
| 20260509071906 | 72 | 209 | 5.0 | 7.0 | 0.00 | 0.00 | 0.00 | 26 | |
| 20260509071406 | 72 | 226 | 4.0 | 7.0 | 0.00 | 0.00 | 0.00 | 26 | |
| 20260509070906 | 73 | 213 | 4.0 | 8.0 | 0.00 | 0.00 | 0.00 | 26 | |
| 20260509070406 | 73 | 214 | 6.0 | 9.0 | 0.00 | 0.00 | 0.00 | 26 | |
| 20260509065906 | 73 | 214 | 7.0 | 9.0 | 0.00 | 0.00 | 0.00 | 26 | |
| 20260509065406 | 73 | 219 | 4.0 | 7.0 | 0.00 | 0.00 | 0.00 | 27 | |
| 20260509064406 | 74 | 213 | 4.0 | 5.0 | 0.00 | 0.00 | 0.00 | 27 | |
| 20260509063914 | 74 | 211 | 4.0 | 5.0 | 0.00 | 0.00 | 0.00 | 27 | |
| 20260509063406 | 74 | 195 | 3.0 | 5.0 | 0.00 | 0.00 | 0.00 | 27 | |
| 20260509062906 | 74 | 196 | 4.0 | 5.0 | 0.00 | 0.00 | 0.00 | 27 | |
| 20260509062407 | 74 | 193 | 4.0 | 5.0 | 0.00 | 0.00 | 0.00 | 28 | |
| 20260509061906 | 74 | 204 | 4.0 | 5.0 | 0.00 | 0.00 | 0.00 | 27 | |
| 20260509061406 | 74 | 196 | 3.0 | 6.0 | 0.00 | 0.00 | 0.00 | 27 | |
| 20260509060906 | 74 | 200 | 4.0 | 6.0 | 0.00 | 0.00 | 0.00 | 27 | |
| 20260509060406 | 74 | 205 | 4.0 | 6.0 | 0.00 | 0.00 | 0.00 | 27 | |
| 20260509055908 | 74 | 201 | 4.0 | 5.0 | 0.00 | 0.00 | 0.00 | 27 | |
| 20260509055406 | 74 | 208 | 4.0 | 6.0 | 0.00 | 0.00 | 0.00 | 27 | |
| 20260509054907 | 74 | 205 | 5.0 | 6.0 | 0.00 | 0.00 | 0.00 | 26 | |
| 20260509054406 | 74 | 214 | 4.0 | 5.0 | 0.00 | 0.00 | 0.00 | 27 | |
| 20260509053906 | 74 | 221 | 4.0 | 5.0 | 0.00 | 0.00 | 0.00 | 27 | |
| 20260509053411 | 74 | 204 | 3.0 | 5.0 | 0.00 | 0.00 | 0.00 | 28 | |
| 20260509052906 | 74 | 173 | 0.0 | 3.0 | 0.00 | 0.00 | 0.00 | 25 | |
| 20260509052513 | 74 | 140 | 0.0 | 3.0 | 0.00 | 0.00 | 0.00 | 26 | |
| 20260509052406 | 74 | 140 | 0.0 | 3.0 | 0.00 | 0.00 | 0.00 | 26 | |
| 20260509051906 | 74 | 115 | 2.0 | 3.0 | 0.00 | 0.00 | 0.00 | 24 | |
| 20260509051406 | 74 | 35 | 0.0 | 1.0 | 0.00 | 0.00 | 0.00 | 24 | |
| 20260509050950 | 75 | 279 | 0.0 | 1.0 | 0.00 | 0.00 | 0.00 | 24 | |
| 20260509050906 | 75 | 279 | 0.0 | 1.0 | 0.00 | 0.00 | 0.00 | 24 | |
| 20260509050407 | 75 | 195 | 0.0 | 2.0 | 0.00 | 0.00 | 0.00 | 24 | |
| 20260509045940 | 75 | 224 | 1.0 | 3.0 | 0.00 | 0.00 | 0.00 | 25 | |
| 20260509045906 | 75 | 224 | 1.0 | 3.0 | 0.00 | 0.00 | 0.00 | 25 | |
| 20260509044942 | 75 | 164 | 1.0 | 3.0 | 0.00 | 0.00 | 0.00 | 24 | |
| 20260509044906 | 75 | 164 | 1.0 | 3.0 | 0.00 | 0.00 | 0.00 | 24 | |
| 20260509044406 | 75 | 181 | 2.0 | 3.0 | 0.00 | 0.00 | 0.00 | 24 |